W5IM Weather Reports


Display with metric or nautical units.
time (UTC)temp
F
wind
direction
speed
MPH
gust
MPH
rain 1hr
in
rain 24hr
in
rain mn
in
humidity
%
barometer
mb
20260902223008 98 139 13.0 20.0 0.00 0.00 0.00 46 1009.8
20260902222507 98 140 10.0 18.0 0.00 0.00 0.00 46 1009.8
20260902222008 98 161 13.0 22.0 0.00 0.00 0.00 46 1009.8
20260902221506 98 145 14.0 18.0 0.00 0.00 0.00 45 1009.8
20260902221008 98 127 14.0 20.0 0.00 0.00 0.00 46 1009.8
20260902220507 99 157 13.0 20.0 0.00 0.00 0.00 45 1009.8
20260902220006 98 150 13.0 20.0 0.00 0.00 0.00 46 1009.9
20260902215507 99 124 14.0 21.0 0.00 0.00 0.00 45 1009.9
20260902215007 99 129 15.0 21.0 0.00 0.00 0.00 45 1009.8
20260902214010 100 104 12.0 17.0 0.00 0.00 0.00 44 1009.9
20260902213507 100 162 10.0 17.0 0.00 0.00 0.00 41 1010.0
20260902213007 99 137 10.0 15.0 0.00 0.00 0.00 40 1009.9
20260902212509 98 136 12.0 16.0 0.00 0.00 0.00 42 1010.1
20260902212007 97 130 10.0 17.0 0.00 0.00 0.00 42 1010.1
20260902211508 98 132 12.0 18.0 0.00 0.00 0.00 41 1010.1
20260902211007 100 139 12.0 17.0 0.00 0.00 0.00 39 1010.1
20260902210508 100 137 9.0 12.0 0.00 0.00 0.00 35 1010.1
20260902210006 99 110 8.0 13.0 0.00 0.00 0.00 32 1010.2
20260902205507 98 143 6.0 10.0 0.00 0.00 0.00 33 1010.2
20260902204507 100 198 3.0 15.0 0.00 0.00 0.00 33 1010.4
20260902204009 100 180 2.0 8.0 0.00 0.00 0.00 32 1010.5
20260902202506 101 171 6.0 13.0 0.00 0.00 0.00 32 1010.6
20260902202008 101 176 6.0 14.0 0.00 0.00 0.00 33 1010.6
20260902201507 100 113 6.0 9.0 0.00 0.00 0.00 33 1010.7
20260902201007 100 201 2.0 3.0 0.00 0.00 0.00 34 1010.7
20260902200506 100 165 4.0 7.0 0.00 0.00 0.00 33 1010.9
20260902200006 99 108 7.0 12.0 0.00 0.00 0.00 34 1011.0
20260902195508 99 193 2.0 9.0 0.00 0.00 0.00 36 1011.0
20260902195007 99 222 6.0 12.0 0.00 0.00 0.00 35 1011.2
20260902194507 99 232 3.0 8.0 0.00 0.00 0.00 38 1011.3
20260902194007 98 274 7.0 9.0 0.00 0.00 0.00 37 1011.4
20260902193506 97 215 5.0 10.0 0.00 0.00 0.00 38 1011.5
20260902193007 97 204 5.0 7.0 0.00 0.00 0.00 38 1011.7
20260902192506 98 243 6.0 9.0 0.00 0.00 0.00 38 1011.7
20260902192007 98 203 6.0 8.0 0.00 0.00 0.00 38 1011.9
20260902191507 98 142 4.0 9.0 0.00 0.00 0.00 39 1012.0
20260902191011 99 210 4.0 13.0 0.00 0.00 0.00 38 1012.0
20260902190508 98 267 3.0 9.0 0.00 0.00 0.00 39 1012.0
20260902190007 98 196 6.0 12.0 0.00 0.00 0.00 39 1012.1
20260902185506 98 200 6.0 13.0 0.00 0.00 0.00 39 1012.1
20260902185007 98 145 7.0 10.0 0.00 0.00 0.00 38 1012.1
20260902184508 97 222 5.0 12.0 0.00 0.00 0.00 40 1012.2
20260902184007 97 225 5.0 8.0 0.00 0.00 0.00 42 1012.3
20260902183506 96 223 6.0 12.0 0.00 0.00 0.00 42 1012.6
20260902183007 96 219 5.0 9.0 0.00 0.00 0.00 43 1012.6
20260902182507 97 247 7.0 9.0 0.00 0.00 0.00 42 1012.7
20260902180007 95 229 6.0 12.0 0.00 0.00 0.00 45 1013.2
20260902175507 95 236 7.0 9.0 0.00 0.00 0.00 47 1013.2
20260902175007 95 217 6.0 10.0 0.00 0.00 0.00 47 1013.3
20260902174507 94 232 4.0 9.0 0.00 0.00 0.00 48 1013.3
20260902174007 95 212 6.0 12.0 0.00 0.00 0.00 49 1013.5
20260902173506 94 226 7.0 15.0 0.00 0.00 0.00 49 1013.5
20260902173008 94 204 7.0 12.0 0.00 0.00 0.00 49 1013.5
20260902172506 94 247 7.0 10.0 0.00 0.00 0.00 50 1013.5
20260902172007 93 221 9.0 15.0 0.00 0.00 0.00 50 1013.6
20260902171506 93 235 7.0 12.0 0.00 0.00 0.00 51 1013.7
20260902170507 93 212 9.0 14.0 0.00 0.00 0.00 50 1013.8
20260902170007 93 216 9.0 16.0 0.00 0.00 0.00 51 1013.8
20260902165506 93 235 7.0 13.0 0.00 0.00 0.00 52 1013.9
20260902165007 92 227 10.0 16.0 0.00 0.00 0.00 53 1013.9
20260902164507 92 209 10.0 16.0 0.00 0.00 0.00 51 1014.0
20260902164007 92 224 8.0 15.0 0.00 0.00 0.00 54 1014.0
20260902163506 92 191 9.0 14.0 0.00 0.00 0.00 53 1014.0
20260902163007 92 216 7.0 14.0 0.00 0.00 0.00 54 1014.0
20260902162508 92 192 9.0 16.0 0.00 0.00 0.00 55 1014.0
20260902162008 91 209 9.0 15.0 0.00 0.00 0.00 56 1014.1
20260902161508 91 212 9.0 18.0 0.00 0.00 0.00 56 1014.2
20260902161008 91 217 10.0 16.0 0.00 0.00 0.00 55 1014.1
20260902160507 91 222 9.0 14.0 0.00 0.00 0.00 57 1014.1
20260902160009 91 189 9.0 16.0 0.00 0.00 0.00 58 1014.1
20260902155508 90 201 10.0 16.0 0.00 0.00 0.00 58 1014.2
20260902155008 90 194 9.0 13.0 0.00 0.00 0.00 61 1014.1
20260902154008 89 201 14.0 20.0 0.00 0.00 0.00 61 1014.1
20260902153008 89 207 11.0 16.0 0.00 0.00 0.00 64 1014.1
20260902152008 88 214 9.0 15.0 0.00 0.00 0.00 69 1014.2
20260902151508 87 199 8.0 15.0 0.00 0.00 0.00 70 1014.3
20260902151008 87 226 11.0 16.0 0.00 0.00 0.00 71 1014.4
20260902150508 86 197 9.0 15.0 0.00 0.00 0.00 72 1014.3
20260902150007 86 216 9.0 14.0 0.00 0.00 0.00 74 1014.4
20260902145507 85 210 9.0 14.0 0.00 0.00 0.00 77 1014.5
20260902145008 85 216 9.0 13.0 0.00 0.00 0.00 77 1014.5
20260902144508 85 197 9.0 12.0 0.00 0.00 0.00 79 1014.5
20260902144008 84 209 10.0 17.0 0.00 0.00 0.00 80 1014.5
20260902143508 84 199 7.0 12.0 0.00 0.00 0.00 80 1014.5
20260902142507 85 205 8.0 14.0 0.00 0.00 0.00 80 1014.5
20260902141508 84 204 7.0 14.0 0.00 0.00 0.00 81 1014.4
20260902141008 83 193 9.0 13.0 0.00 0.00 0.00 82 1014.5
20260902140508 83 207 9.0 15.0 0.00 0.00 0.00 83 1014.5
20260902140007 83 202 7.0 10.0 0.00 0.00 0.00 84 1014.5
20260902135507 82 205 9.0 12.0 0.00 0.00 0.00 84 1014.5
20260902135008 82 184 6.0 10.0 0.00 0.00 0.00 85 1014.5
20260902134508 82 192 6.0 9.0 0.00 0.00 0.00 85 1014.4
20260902133008 81 181 4.0 7.0 0.00 0.00 0.00 87 1014.3
20260902132507 81 163 4.0 7.0 0.00 0.00 0.00 88 1014.2
20260902132008 81 178 3.0 7.0 0.00 0.00 0.00 88 1014.3
20260902131507 80 177 5.0 8.0 0.00 0.00 0.00 89 1014.3
20260902130508 80 185 4.0 7.0 0.00 0.00 0.00 90 1014.1
20260902130007 80 178 3.0 5.0 0.00 0.00 0.00 90 1014.0
20260902125509 80 188 3.0 6.0 0.00 0.00 0.00 90 1014.0
20260902125007 80 171 3.0 6.0 0.00 0.00 0.00 90 1014.1
20260902124008 80 167 3.0 6.0 0.00 0.00 0.00 91 1014.0
20260902123508 80 165 3.0 6.0 0.00 0.00 0.00 91 1013.9
20260902122507 79 178 2.0 5.0 0.00 0.00 0.00 91 1013.9
20260902121507 79 183 3.0 6.0 0.00 0.00 0.00 91 1013.7
20260902121008 79 194 4.0 7.0 0.00 0.00 0.00 90 1013.6
20260902120507 80 192 5.0 7.0 0.00 0.00 0.00 90 1013.6
20260902120008 80 191 4.0 6.0 0.00 0.00 0.00 90 1013.6
20260902115007 80 193 2.0 6.0 0.00 0.00 0.00 90 1013.7
20260902114508 80 181 4.0 8.0 0.00 0.00 0.00 90 1013.7
20260902113507 80 188 3.0 5.0 0.00 0.00 0.00 90 1013.6
20260902113008 80 174 2.0 5.0 0.00 0.00 0.00 90 1013.6
20260902112508 80 177 3.0 6.0 0.00 0.00 0.00 90 1013.6
20260902111507 80 188 3.0 6.0 0.00 0.00 0.00 90 1013.5
20260902111008 80 189 3.0 7.0 0.00 0.00 0.00 90 1013.4
20260902110507 80 176 3.0 6.0 0.00 0.00 0.00 90 1013.5
20260902110008 80 177 2.0 6.0 0.00 0.00 0.00 90 1013.5
20260902105508 79 188 2.0 5.0 0.00 0.00 0.00 90 1013.5
20260902105007 80 184 4.0 6.0 0.00 0.00 0.00 90 1013.6
20260902104508 80 184 3.0 6.0 0.00 0.00 0.00 90 1013.5
20260902104008 80 188 3.0 6.0 0.00 0.00 0.00 90 1013.5
20260902103508 80 184 3.0 6.0 0.00 0.00 0.00 90 1013.5
20260902103008 80 188 5.0 7.0 0.00 0.00 0.00 89 1013.4
20260902102508 80 195 4.0 7.0 0.00 0.00 0.00 89 1013.4
20260902102008 80 181 3.0 6.0 0.00 0.00 0.00 89 1013.5
20260902101508 80 182 2.0 5.0 0.00 0.00 0.00 89 1013.6
20260902101008 80 175 3.0 6.0 0.00 0.00 0.00 89 1013.6
20260902100008 80 176 2.0 6.0 0.00 0.00 0.00 89 1013.4
20260902095507 80 182 4.0 7.0 0.00 0.00 0.00 89 1013.4
20260902095008 80 189 5.0 8.0 0.00 0.00 0.00 89 1013.4
20260902094507 80 190 5.0 8.0 0.00 0.00 0.00 89 1013.4
20260902094008 80 191 5.0 7.0 0.00 0.00 0.00 88 1013.5
20260902093507 80 184 5.0 7.0 0.00 0.00 0.00 88 1013.6
20260902092507 80 177 3.0 5.0 0.00 0.00 0.00 88 1013.5
20260902092008 80 172 3.0 6.0 0.00 0.00 0.00 88 1013.5
20260902091507 80 172 4.0 7.0 0.00 0.00 0.00 88 1013.5
20260902091007 80 189 3.0 7.0 0.00 0.00 0.00 88 1013.6
20260902090007 81 179 3.0 7.0 0.00 0.00 0.00 88 1013.6
20260902085007 81 173 4.0 6.0 0.00 0.00 0.00 88 1013.5
20260902084508 80 182 4.0 7.0 0.00 0.00 0.00 88 1013.5
20260902083507 81 183 3.0 6.0 0.00 0.00 0.00 88 1013.6
20260902083008 81 176 4.0 8.0 0.00 0.00 0.00 87 1013.7
20260902081507 81 182 3.0 6.0 0.00 0.00 0.00 87 1013.8
20260902081007 81 177 4.0 6.0 0.00 0.00 0.00 86 1013.8
20260902080007 81 171 3.0 6.0 0.00 0.00 0.00 86 1013.8
20260902075007 81 194 5.0 9.0 0.00 0.00 0.00 86 1013.7
20260902074008 81 188 6.0 10.0 0.00 0.00 0.00 86 1013.8
20260902073507 81 174 5.0 8.0 0.00 0.00 0.00 86 1013.9
20260902073007 81 194 5.0 9.0 0.00 0.00 0.00 86 1013.9
20260902072507 81 192 5.0 7.0 0.00 0.00 0.00 86 1013.9
20260902072007 81 179 4.0 7.0 0.00 0.00 0.00 86 1013.8
20260902071508 81 192 5.0 8.0 0.00 0.00 0.00 86 1013.8
20260902071008 81 190 5.0 8.0 0.00 0.00 0.00 86 1013.8
20260902070507 81 192 5.0 9.0 0.00 0.00 0.00 86 1013.9
20260902065507 81 201 7.0 10.0 0.00 0.00 0.00 86 1013.8
20260902065008 81 195 6.0 9.0 0.00 0.00 0.00 86 1013.8
20260902064507 81 197 6.0 9.0 0.00 0.00 0.00 86 1013.9
20260902064008 81 196 6.0 10.0 0.00 0.00 0.00 85 1014.0
20260902063507 81 202 6.0 9.0 0.00 0.00 0.00 85 1014.0
20260902063008 81 195 6.0 9.0 0.00 0.00 0.00 85 1014.0
20260902062009 82 189 5.0 7.0 0.00 0.00 0.00 85 1014.0
20260902061508 82 188 5.0 9.0 0.00 0.00 0.00 85 1014.0
20260902061008 82 180 5.0 9.0 0.00 0.00 0.00 84 1014.0
20260902060507 82 170 6.0 9.0 0.00 0.00 0.00 84 1014.0
20260902060007 82 194 6.0 9.0 0.00 0.00 0.00 84 1014.0
20260902055507 82 188 5.0 9.0 0.00 0.00 0.00 84 1013.9
20260902055008 82 175 5.0 8.0 0.00 0.00 0.00 84 1014.0
20260902054007 82 173 5.0 10.0 0.00 0.00 0.00 83 1014.1
20260902053507 82 169 4.0 8.0 0.00 0.00 0.00 83 1014.2
20260902052507 82 186 5.0 9.0 0.00 0.00 0.00 83 1014.0
20260902052008 82 200 5.0 9.0 0.00 0.00 0.00 83 1014.1
20260902051507 82 188 6.0 9.0 0.00 0.00 0.00 82 1014.0
20260902051008 82 171 6.0 12.0 0.00 0.00 0.00 82 1014.0
20260902050508 83 183 6.0 13.0 0.00 0.00 0.00 82 1014.0
20260902050008 83 187 6.0 9.0 0.00 0.00 0.00 82 1013.9
20260902045507 83 183 6.0 12.0 0.00 0.00 0.00 82 1013.8
20260902045007 83 193 7.0 14.0 0.00 0.00 0.00 82 1013.7
20260902044008 83 190 7.0 12.0 0.00 0.00 0.00 81 1013.8
20260902043507 83 179 6.0 13.0 0.00 0.00 0.00 81 1013.8
20260902043008 83 191 7.0 12.0 0.00 0.00 0.00 81 1013.8
20260902042507 83 171 7.0 10.0 0.00 0.00 0.00 81 1013.8
20260902042008 83 192 6.0 12.0 0.00 0.00 0.00 80 1014.0
20260902041008 83 174 6.0 14.0 0.00 0.00 0.00 80 1014.0
20260902040507 83 166 6.0 12.0 0.00 0.00 0.00 80 1014.0
20260902040008 83 177 5.0 14.0 0.00 0.00 0.00 79 1014.0
20260902035507 83 169 5.0 9.0 0.00 0.00 0.00 79 1013.9
20260902034507 83 175 7.0 14.0 0.00 0.00 0.00 78 1013.7
20260902034007 84 172 6.0 12.0 0.00 0.00 0.00 77 1013.7
20260902033511 83 163 6.0 13.0 0.00 0.00 0.00 77 1013.6
20260902032508 83 171 8.0 12.0 0.00 0.00 0.00 77 1013.5
20260902032008 84 162 11.0 15.0 0.00 0.00 0.00 76 1013.5
20260902031508 84 180 6.0 15.0 0.00 0.00 0.00 75 1013.5
20260902030507 84 179 7.0 12.0 0.00 0.00 0.00 74 1013.3
20260902030007 84 181 6.0 15.0 0.00 0.00 0.00 73 1013.2
20260902025507 85 181 7.0 15.0 0.00 0.00 0.00 72 1013.2
20260902025008 85 176 7.0 14.0 0.00 0.00 0.00 71 1013.2
20260902024507 85 179 6.0 12.0 0.00 0.00 0.00 70 1013.0
20260902024007 85 177 8.0 13.0 0.00 0.00 0.00 70 1012.9
20260902023507 85 166 9.0 14.0 0.00 0.00 0.00 70 1012.7
20260902022507 85 172 6.0 14.0 0.00 0.00 0.00 68 1012.7
20260902022007 86 178 8.0 14.0 0.00 0.00 0.00 67 1012.5
20260902021507 86 177 7.0 14.0 0.00 0.00 0.00 66 1012.4
20260902021008 86 164 9.0 15.0 0.00 0.00 0.00 65 1012.3
20260902020507 87 172 7.0 15.0 0.00 0.00 0.00 64 1012.3
20260902020007 87 156 9.0 15.0 0.00 0.00 0.00 63 1012.2
20260902015507 87 163 10.0 16.0 0.00 0.00 0.00 62 1012.1
20260902015008 87 153 8.0 15.0 0.00 0.00 0.00 61 1012.0
20260902014507 87 155 10.0 15.0 0.00 0.00 0.00 61 1011.9
20260902014008 88 160 11.0 17.0 0.00 0.00 0.00 60 1011.9
20260902013008 88 154 11.0 17.0 0.00 0.00 0.00 59 1011.8
20260902012507 89 154 10.0 14.0 0.00 0.00 0.00 58 1011.7
20260902011008 89 151 8.0 13.0 0.00 0.00 0.00 58 1011.5
20260902010507 90 151 9.0 13.0 0.00 0.00 0.00 58 1011.5
20260902010007 90 152 11.0 15.0 0.00 0.00 0.00 57 1011.5
20260902005507 90 146 10.0 16.0 0.00 0.00 0.00 56 1011.6
20260902004507 91 145 12.0 16.0 0.00 0.00 0.00 50 1011.5
20260902004007 92 145 10.0 16.0 0.00 0.00 0.00 48 1011.4
20260902003507 92 156 10.0 15.0 0.00 0.00 0.00 47 1011.4
20260902003008 92 154 11.0 16.0 0.00 0.00 0.00 46 1011.4
20260902002007 93 144 11.0 16.0 0.00 0.00 0.00 44 1011.4
20260902001507 93 147 9.0 16.0 0.00 0.00 0.00 43 1011.3
20260902001007 94 157 10.0 15.0 0.00 0.00 0.00 44 1011.4
20260902000508 94 165 12.0 17.0 0.00 0.00 0.00 41 1011.3
20260902000007 94 150 11.0 17.0 0.00 0.00 0.00 40 1011.3
20260901235508 94 136 13.0 17.0 0.00 0.00 0.00 40 1011.1
20260901235007 94 141 13.0 17.0 0.00 0.00 0.00 40 1011.1
20260901234008 95 148 12.0 16.0 0.00 0.00 0.00 41 1011.1
20260901233507 95 144 12.0 18.0 0.00 0.00 0.00 41 1011.2
20260901233007 95 146 14.0 21.0 0.00 0.00 0.00 41 1011.1
20260901232007 95 130 14.0 21.0 0.00 0.00 0.00 40 1010.9
20260901231507 96 138 14.0 20.0 0.00 0.00 0.00 40 1010.9
20260901231008 96 137 13.0 18.0 0.00 0.00 0.00 40 1010.9
20260901230507 96 145 9.0 21.0 0.00 0.00 0.00 40 1010.9
20260901230007 97 134 13.0 24.0 0.00 0.00 0.00 39 1011.0
20260901225507 98 154 14.0 22.0 0.00 0.00 0.00 39 1010.9
20260901225008 98 137 11.0 18.0 0.00 0.00 0.00 38 1010.8
20260901224507 99 140 10.0 14.0 0.00 0.00 0.00 37 1010.8
20260901224007 99 198 6.0 12.0 0.00 0.00 0.00 38 1010.7